Flag for Australia Weather past 2 weeks in Ballarat, Victoria, Australia

Now
59 °F

Cool.


Feels Like: 59 °F
Forecast: 50 / 65 °F
Wind: 6 mph from South

Location: Sheoaks Aws

Current Time: Feb 2, 2015 at 10:48:25 AM

Latest Report: Feb 2, 2015 at 10:00 AM


Visibility: N/A

Pressure: 30.12 "Hg

Humidity: 68%

Dew point: 49 °F

Location of BallaratLocation

Historic Weather in Ballarat — Graph

°F

Ballarat temperature yesterday

Maximum temperature yesterday: 63 °F (at 4:00 PM)
Minimum temperature yesterday: 54 °F (at 4:00 AM)
Average temperature yesterday: 58 °F

Past Weeks' High & Low Weather Summary

 TemperatureHumidityPressure
High94 °F (Jan 22, 4:00 PM)97% (Jan 22, 7:00 AM)30.14 "Hg (Jan 22, 7:00 AM)
Low40 °F (Jan 27, 6:00 AM)26% (Jan 24, 4:00 PM)29.57 "Hg (Jan 24, 6:00 PM)
Average61 °F65%29.90 "Hg
* Reported Jan 18 9:00 AM — Feb 2 9:00 AM, Ballarat, Weather by CustomWeather, © 2014

Note: Actual official high and low records may vary slightly from our data, if they occured in-between our weather recording intervals... More about our weather records

Advertising

Ballarat weather history for previous 24 hours

 ConditionsComfort  
Time TempWeatherWind HumidityBarometerVisibility
9:00 AM
Feb 2
58 °FCool.5 mph70%30.11 "HgN/A
7:00 AM55 °FCool.3 mph74%30.07 "HgN/A
6:00 AM55 °FCool.3 mph75%30.06 "HgN/A
4:00 AM55 °FCool.5 mph74%30.03 "HgN/A
3:00 AM55 °FCool.7 mph74%30.04 "HgN/A
1:00 AM56 °FCool.8 mph73%30.05 "HgN/A
12:00 AM56 °FCool.8 mph74%30.05 "HgN/A
10:00 PM
Feb 1
57 °FCool.12 mph74%30.02 "HgN/A
9:00 PM57 °FCool.9 mph73%30.01 "HgN/A
7:00 PM59 °FCool.12 mph72%29.97 "HgN/A
6:00 PM61 °FCool.13 mph70%29.95 "HgN/A
4:00 PM63 °FMild.9 mph70%29.94 "HgN/A
3:00 PM63 °FMild.14 mph74%29.93 "HgN/A
1:00 PM62 °FCool.13 mph69%29.94 "HgN/A
12:00 PM60 °FCool.9 mph70%29.95 "HgN/A
10:00 AM58 °FCool.13 mph74%29.94 "HgN/A
Weather by CustomWeather, © 2014

See weather overviewHow to use our weather pages